{"data":{"norad_id":69242,"epoch":"2026-09-20T02:06:04.968000Z","epoch_age_seconds":62603,"freshness":"FRESH","line1":"1 69242U 26117E   26263.08755750  .00018023  00000+0  54319-3 0  9994","line2":"2 69242  53.1575 155.6748 0001344  88.5965 271.5192 15.34405311 17608","mean_motion":15.34405311,"eccentricity":0.0001344,"inclination_deg":53.1575,"raan_deg":155.6748,"arg_perigee_deg":88.5965,"mean_anomaly_deg":271.5192,"bstar":0.00054319,"rev_number":1760,"period_min":93.847433248359,"perigee_km":461.76804803466,"apogee_km":463.60686164813,"semimajor_km":6840.8244548414,"source":"CELESTRAK","updated_at":"2026-09-20T09:00:44.148055Z"}}